Find Starlink 1304

NORAD ID: 45376 Int'l Des: 2020-019 Owner: SPXS Country: US Constellation: starlink operational
LEOCIRCULAR

現在のビュー

3D地球を読み込み中...

About Starlink 1304

Starlink 1304 (NORAD 45376) is a starlink constellation satellite (v1.0) launched Mar 18, 2020 by SPXS of US. It operates in LEO, CIRCULAR orbit with a mass of 260.00 kg.

次回通過

Passes for default location (London). Set your location on the main map for personalized predictions.

高度履歴

Loading altitude history...

軌道要素

1 45376U 20019S 26263.57968358 .00057105 00000-0 38447-3 0 9994
2 45376 53.0349 276.1554 0005402 47.2914 312.8559 15.74594232360441
Epoch: Sep 20, 2026 • Age: 10 hours

現在のステータス

高度 366.0 km
遠地点 / 近地点 N/A
速度 7.69 km/s
衛星直下点 -52.12°S, 163.58°W
打ち上げ日 Mar 18, 2020
運用期間 6.5 years
タイプ internet

技術仕様

分類 Payload
質量 260.00 kg
乾燥質量 248.00 kg
長さ 0.20 m
スパン 9.00 m
形状 ? Box + pan
製造者 SPXS
バスタイプ Starlink
フェーズステータス In Orbit
所有者/国 SPXS/US

Most Searched